Location: Arrodets-la-Barthe
(43.0306°N, 0.2829°E)
Time: 08:31:52
(UTC+00:00)

Tiangong - Visible Passes

Search period start: 08 December 2022 00:00
Search period end: 18 December 2022 00:00
Orbit: 386 x 392 km, 41.5° (Epoch: 08 December)

Date Brightness Start Highest point End Pass type
(mag) Time Alt. Az. Time Alt. Az. Time Alt. Az.
08 Dec -1.6 17:21:09 10° W 17:24:18 58° S 17:27:11 12° ESE visible
08 Dec 0.8 18:58:21 10° WSW 18:59:30 17° WSW 18:59:30 17° WSW visible
09 Dec -0.6 17:59:48 10° W 18:02:41 32° SSW 18:04:16 20° SSE visible
10 Dec -1.0 17:01:14 10° W 17:04:18 44° SSW 17:07:21 10° ESE visible
10 Dec 0.7 18:39:02 10° WSW 18:40:43 14° SSW 18:41:23 13° SSW visible
11 Dec 0.4 17:39:49 10° WSW 17:42:18 21° SSW 17:44:45 10° SSE visible
13 Dec 1.0 17:19:45 10° WSW 17:21:17 13° SSW 17:22:48 10° S visible
